Location: Unspecified
(0.0000°N, 0.0000°E)
Time: 04:37:17
(UTC+00:00)

COSMOS 2488 - Visible Passes

Search period start: 03 June 2023 00:00
Search period end: 13 June 2023 00:00
Orbit: 1479 x 1509 km, 82.5° (Epoch: 02 June)

Date Brightness Start Highest point End Pass type
(mag) Time Alt. Az. Time Alt. Az. Time Alt. Az.
03 Jun ? 04:09:01 10° N 04:17:46 67° E 04:26:31 10° SSE visible
04 Jun ? 03:21:08 10° NNE 03:28:34 31° E 03:35:59 10° SE visible
04 Jun ? 05:17:16 10° NNW 05:24:58 34° W 05:32:44 10° SSW visible
05 Jun ? 02:36:35 10° ENE 02:39:22 12° E 02:42:07 10° ESE visible
05 Jun ? 04:26:58 10° N 04:35:46 74° W 04:44:36 10° S visible
06 Jun ? 03:38:02 10° NNE 03:46:34 54° E 03:55:06 10° SSE visible
07 Jun ? 02:50:40 10° NE 02:57:22 24° E 03:04:03 10° SE visible
07 Jun ? 04:45:36 10° NNW 04:53:46 43° W 05:01:59 10° SSW visible
08 Jun ? 03:55:43 10° N 04:04:35 89° WSW 04:13:27 10° S visible
09 Jun ? 03:07:09 10° NNE 03:15:22 44° E 03:23:34 10° SSE visible
09 Jun ? 05:05:10 10° NW 05:11:46 24° W 05:18:26 10° SW visible
10 Jun ? 02:20:29 10° NE 02:26:10 19° E 02:31:49 10° SE visible
10 Jun ? 04:14:04 10° NNW 04:22:35 53° W 04:31:07 10° SSW visible
11 Jun ? 03:24:34 10° N 03:33:22 75° E 03:42:11 10° S visible
11 Jun ? 05:27:16 10° WNW 05:29:49 11° W 05:32:21 10° WSW visible
12 Jun ? 02:36:24 10° NNE 02:44:10 35° E 02:49:20 20° SE visible
12 Jun ? 04:33:14 10° NW 04:40:34 30° W 04:45:02 20° SW visible
